Regional Weather Roundup
Issued by NWS Wakefield, VA

Home | Current Version | Previous Version | Graphics & Text | Print | Product List | Glossary On
Versions: 1 2 3 4 5 6 7 8 9 10 11 12 13 14 15 16 17 18 19 20 21 22 23 24 25 26 27 28 29 30 31 32 33 34 35 36 37 38 39 40 41 42 43 44 45 46 47 48 49 50
000
ASUS41 KAKQ 021515
RWRAKQ

REGIONAL WEATHER ROUNDUP
NATIONAL WEATHER SERVICE WAKEFIELD VA
1100 AM EDT SUN AUG 02 2015

Note: "fair" indicates few or no clouds below 12,000 feet with no
significant weather and/or obstructions to visibility. * = Denotes
station may not report precipitation (e.g., rain,snow,etc.),
thunder or fog.

VAZ042-051-052>054-056-021600-
NORTHERN VIRGINIA

CITY           SKY/WX    TMP DP  RH WIND       PRES   REMARKS
WASH NATIONAL  PTSUNNY   85  63  47 NE5       29.98R
DULLES         PTSUNNY   80  61  52 CALM      29.99R
FORT BELVOIR   NOT AVBL
QUANTICO       NOT AVBL
FREDERICKSBRG* PTSUNNY   83  62  49 CALM      29.97S
STAFFORD*      PTSUNNY   82  57  43 N7        30.02S
WARRENTON      PTSUNNY   82  66  59 CALM      29.99S
CULPEPER*      PTSUNNY   79  61  53 CALM      30.00S
MANASSAS*      SUNNY     79  66  65 CALM      29.98S
LEESBURG*      PTSUNNY   81  66  61 SW5       30.00R
WINCHESTER     MOSUNNY   81  59  47 SW8       30.00S
FRONT ROYAL*   FAIR      75  63  64 S5        30.00S
LURAY*         FAIR      79  61  53 CALM      30.02S
$$

VAZ048-049-060>072-079>083-021600-
CENTRAL AND SOUTH CENTRAL VIRGINIA

CITY           SKY/WX    TMP DP  RH WIND       PRES   REMARKS
RICHMOND       PTSUNNY   85  61  44 N8        29.97R
CHESTERFIELD*  FAIR      84  55  37 NE7       29.98S
PETERSBURG*    MOSUNNY   83  69  63 N6        29.98S
HANOVER        MOSUNNY   82  62  50 VRB6      29.99R
TAPPAHANNOCK*  MOSUNNY   82  60  48 CALM      29.98R
QUINTON*       FAIR      82  62  51 N7        29.96S
CHARLOTTSVILLE MOSUNNY   81  62  52 CALM      30.01R
GORDONSVILLE*  FAIR      81  63  54 N3        30.00R
ORANGE*        MOSUNNY   81  61  50 CALM      30.01S
LOUISA*        MOSUNNY   84  61  45 N5        29.99S
BUMPASS*       FAIR      80  63  55 N7        29.99S
FARMVILLE*     SUNNY     83  57  41 N6        29.99R
CREWE*         FAIR     N/A N/A N/A NE8       29.99R
FORT PICKETT*  PTSUNNY   81  61  49 N7        29.99S
CHASE CITY*    FAIR      82  63  53 N6        30.01R
CLARKSVILLE*   FAIR      79  64  61 CALM      29.99S
SOUTH HILL*    MOSUNNY   80  60  49 N6        30.04S
LAWRENCEVILLE* FAIR      82  61  47 N3        29.98R
EMPORIA*       PTSUNNY   79  64  61 NW7       29.98S
$$

VAZ088>098-021600-
SOUTHEAST VIRGINIA

CITY           SKY/WX    TMP DP  RH WIND       PRES   REMARKS
NORFOLK        MOSUNNY   84  74  71 NE9       29.93R
VIRGINIA BEACH PTSUNNY   90  73  57 NE6       29.91S HX  98
NORFOLK NAVAL  PTSUNNY   85  74  69 N10       29.95R
WEST POINT*    PTSUNNY   84  65  52 NW5       29.97S
SALUDA*        FAIR      81  65  57 N9        29.95S
NEWPORT NEWS   PTSUNNY   84  72  67 VRB7      29.95R
LANGLEY AFB    NOT AVBL
FORT EUSTIS    PTSUNNY   83  68  60 VRB6      29.93R
WILLIAMSBURG*  PTSUNNY   84  72  65 CALM      29.96S
HR EXEC AP*    FAIR      86  73  66 NE5       29.95S
FRANKLIN*      PTSUNNY   82  69  63 N6        29.95S
WAKEFIELD      PTSUNNY   81  67  62 VRB5      29.96R
$$

VAZ020-022-025-037-045-021600-
WEST CENTRAL AND SOUTHWEST VIRGINIA

CITY           SKY/WX    TMP DP  RH WIND       PRES   REMARKS
STAUNTON*      MOSUNNY   76  60  59 CALM      30.06S
WAYNESBORO*    FAIR      74  57  55 N3        30.05S
HOT SPRINGS VA PTSUNNY   69  56  63 W6        30.13S
LYNCHBURG      MOSUNNY   78  58  49 N3        30.04R
DANVILLE       MOSUNNY   81  59  47 VRB6      30.01R
SOUTH BOSTON*  FAIR      80  60  50 CALM      30.01R
MARTINSVILLE   SUNNY     82  55  38 N7        30.06R
ROANOKE        PTSUNNY   76  58  53 NE3       30.06S
BLACKSBURG     PTSUNNY   73  60  64 N3        30.12S
DUBLIN*          N/A     75  58  55 CALM      30.10F
MARION*        MOSUNNY   74  55  51 E3        30.13S
HILLSVILLE*    SUNNY     71  55  57 N5        30.11R
RICHLANDS*     FAIR      72  58  60 NE6       30.12R
WISE*          NOT AVBL
ABINGDON*      SUNNY     78  54  43 SE7       30.09S
$$

MDZ021>025-VAZ099-100-021600-
SOUTHERN MARYLAND AND THE DELMARVA PENINSULA

CITY           SKY/WX    TMP DP  RH WIND       PRES   REMARKS
PATUXENT RIVER PTSUNNY   83  63  50 N9        29.96R
BAY BRIDGE APT   N/A     79  61  53 NW6       29.97R
LEONARDTOWN    MOSUNNY   81  59  47 CALM      29.99R
DOVER          PTSUNNY   81  66  59 N5        29.95R
GEORGETOWN     PTSUNNY   82  66  58 N6        29.96R
EASTON         MOSUNNY   84  63  48 NE6       30.00R
CAMBRIDGE      MOSUNNY   81  61  50 N6        29.96R
SALISBURY      MOSUNNY   83  63  50 N7        29.95R
OCEAN CITY     PTSUNNY   83  65  54 VRB6      29.94R
WALLOPS ISLAND MOSUNNY   82  67  60 NE8       29.95R
ACCOMACK*      PTSUNNY   81  57  44 N6        29.94S
$$

NCZ012>017-030>032-021600-
NORTH CENTRAL AND EASTERN NORTH CAROLINA

CITY           SKY/WX    TMP DP  RH WIND       PRES   REMARKS
ROANOKE RAPIDS FAIR      81  61  50 N9        29.96S
RALEIGH        PTSUNNY   82  58  43 NE10      29.99S
ELIZABETH CITY SUNNY     87  71  58 NE3       29.93S
AHOSKIE*       MOSUNNY   80  66  64 NW3       29.95S
EDENTON*         N/A     85  70  60 CALM      29.93S
CURRITUCK*     NOT AVBL
KILL DEVIL HLS SUNNY     91  70  48 E5        29.93R HX  96
MANTEO         SUNNY     87  66  49 N3        29.94S
CAPE HATTERAS  SUNNY     86  73  65 CALM      29.95R
TARBORO*         N/A     85  66  54 CALM      29.96S
GOLDSBORO      SUNNY     86  66  51 N6        29.94S
WASHINGTON     SUNNY     84  70  61 CALM      29.95R
GREENVILLE     SUNNY     84  68  58 CALM      29.97R
NEW BERN       SUNNY     87  72  60 CALM      29.95S
WILMINGTON     SUNNY     88  74  63 NW3       29.94S HX  96
$$

VAZ048-021600-
ELSEWHERE

CITY           SKY/WX    TMP DP  RH WIND       PRES   REMARKS
HARRISBURG PA  MOSUNNY   81  58  45 CALM      29.95S
BALTIMORE      PTSUNNY   83  59  44 VRB3      29.96R
ANNAPOLIS      PTSUNNY   81  61  50 CALM      29.96R
ANDREWS AFB    PTSUNNY   83  59  44 VRB3      29.97R
PHILADELPHIA   PTSUNNY   84  57  39 VRB3      29.95R
HENDERSON NC   MOSUNNY   78  58  49 NE3       30.00R
GREENSBORO     PTSUNNY   83  55  38 VRB7      30.02R
ROCKY MOUNT    MOSUNNY   86  61  42 N6        29.96S
$$

VAZ100-021600-
MARINE

STATION/POSITION TIME  TEMP    WIND        PRES    WAVE   SWELL
                       AIR SEA DIR/SP/G            HT/PER HT/PER
                 (UTC) (F)     (DEG/KT/KT) (MB)    (FT/S) (FT/S)
BRANDYWINE LGT   1400   77 76   20/  5/  6 1014.2R
CAPE MAY NJ      1400   82 75  340/  3/  7 1013.6R
LEWES DE         1400   76 74  330/  3/  4 1013.8R
15NM E FENWICK I 1450   78 79   10/  8/ 10 1014.0R   3/11   3/11
OCEAN-CITY-INLET 1400   79 72   70/  9/ 12 1013.0R
WACHAPREAGUE VA  1406   80 82   40/  6/  7 1013.8R
GOOSES REEF MD   1500   80 82   10/  8/ 10 1015.8R
COVE POINT MD    1400   78      10/  7/ 12 1014.9R
SOLOMONS ISLAND  1400      83                N/A
BISHOPS HEAD MD  1400   80 81   10/  8/ 12 1013.2R
PINEY POINT MD   1400           20/  9/ 10   N/A
POTOMAC MD       1500   81 83   20/ 10/ 14 1013.4R   1
CAMBRIDGE MD     1400   79 84  360/  4/  6 1013.3R
LEWISETTA VA     1400   80 83   20/  7/  9 1013.9R
RAPPAHANNOCK LGT 1400           20/ 12/ 14 1014.2R
STINGRAY PT      1500   82 83   40/ 12/ 14 1014.2R   2/ 3
YORK RVR RNG VA  1400   81      50/ 12/ 14 1013.1R
YORKTOWN VA      1400   81 83   10/  6/  7 1013.5R
JAMESTOWN VA     1500   80 85  360/  6/ 10   N/A
DOMINION TERM VA 1400   83      70/  5/  7 1013.4R
KIPTOPEKE VA     1400      82   80/  8/ 11   N/A
CHES BAY BRIDGE  1400   80 79   20/  6/  8 1012.9R
CAPE HENRY VA    1400   80      20/  9/ 10   N/A
CHESAPEAKE LGHT  1400   80     350/  4/  4 1013.9R
WILLOUBY STN VA  1400   80      30/ 11/ 12 1014.5R
CAPE HENRY BUOY  1428      80                N/A     2/12   2/12
1ST LANDING BUOY 1500      80              1013.2R   1/ 4
CAPE CHARLES BUO 1426      78                N/A     2/11   2/11
OFFSHORE WE BUOY 1411      82                N/A     2/11   2/11
64NM E OF VA BCH 1450   82 82  130/  2/  2 1013.3R   3/12   3/12
DUCK PIER NC     1400   81 76  340/  1/  2 1012.6R
44100 DUCK FRF   1424      82                N/A     2/12
44056 DUCK FRF   1411      80                N/A     2/11   2/11
OREGON INLET NC  1400   83 81   60/  6/  7 1013.4R
HATTERAS NC      1400   83 81  330/  1/  2 1013.5S
DIAMOND SHLS NC  1450   82 86  270/  2/  4 1014.3R   3/ 7   3/ 7


USA.gov is the U.S. government's official web portal to all federal, state and local government web resources and services.